Time,TemperatureF,DewpointF,PressureIn,WindDirection,WindDirectionDegrees,WindSpeedMPH,WindSpeedGustMPH,Humidity,HourlyPrecipIn,Conditions,Clouds,dailyrainin,SoftwareType,DateUTC
2013-05-03 00:04:00,59.4,58.3,30.15,North,360,0.0,0.0,96,0.00,,,0.00,Wunderground v.1.15,2013-05-03 04:04:00,
2013-05-03 00:09:00,59.5,58.6,30.15,North,5,0.0,0.0,97,0.00,,,0.00,Wunderground v.1.15,2013-05-03 04:09:00,
2013-05-03 00:14:00,59.5,58.4,30.15,North,360,0.0,0.0,96,0.00,,,0.00,Wunderground v.1.15,2013-05-03 04:14:00,
2013-05-03 00:19:00,59.6,58.5,30.14,North,5,0.0,0.0,96,0.00,,,0.00,Wunderground v.1.15,2013-05-03 04:19:00,
2013-05-03 00:29:00,59.6,58.5,30.14,NNE,19,0.0,0.0,96,0.00,,,0.00,Wunderground v.1.15,2013-05-03 04:29:00,
2013-05-03 00:34:00,59.7,58.6,30.14,NNW,332,0.0,0.0,96,0.00,,,0.00,Wunderground v.1.15,2013-05-03 04:34:00,
2013-05-03 00:39:00,59.7,58.6,30.14,NNW,331,0.0,0.0,96,0.00,,,0.00,Wunderground v.1.15,2013-05-03 04:39:00,
2013-05-03 00:44:00,59.7,58.6,30.14,North,360,0.0,0.0,96,0.00,,,0.00,Wunderground v.1.15,2013-05-03 04:44:00,
2013-05-03 00:49:00,59.7,58.6,30.13,North,360,0.0,0.0,96,0.00,,,0.00,Wunderground v.1.15,2013-05-03 04:49:00,
2013-05-03 00:59:00,59.7,58.6,30.13,NNW,332,0.0,3.0,96,0.00,,,0.00,Wunderground v.1.15,2013-05-03 04:59:00,
2013-05-03 01:04:00,59.7,58.6,30.12,NW,326,0.0,3.0,96,0.00,,,0.00,Wunderground v.1.15,2013-05-03 05:04:00,
2013-05-03 01:14:00,59.6,58.5,30.12,NW,326,0.0,0.0,96,0.00,,,0.00,Wunderground v.1.15,2013-05-03 05:14:00,
2013-05-03 01:19:00,59.6,58.5,30.12,NW,325,0.0,0.0,96,0.00,,,0.00,Wunderground v.1.15,2013-05-03 05:19:00,
2013-05-03 01:29:00,59.6,58.5,30.12,NW,326,0.0,1.0,96,0.00,,,0.00,Wunderground v.1.15,2013-05-03 05:29:00,
2013-05-03 01:34:00,59.5,58.4,30.11,NW,325,0.0,1.0,96,0.00,,,0.00,Wunderground v.1.15,2013-05-03 05:34:00,
2013-05-03 01:39:00,59.5,58.4,30.11,NW,326,0.0,0.0,96,0.00,,,0.00,Wunderground v.1.15,2013-05-03 05:39:00,
2013-05-03 01:49:00,59.3,58.4,30.11,North,9,0.0,0.0,97,0.00,,,0.00,Wunderground v.1.15,2013-05-03 05:49:00,
2013-05-03 01:59:00,59.0,58.2,30.11,North,9,0.0,0.0,97,0.00,,,0.00,Wunderground v.1.15,2013-05-03 05:59:00,
2013-05-03 02:04:00,59.0,58.2,30.11,North,9,0.0,0.0,97,0.00,,,0.00,Wunderground v.1.15,2013-05-03 06:04:00,
2013-05-03 02:14:00,59.0,58.4,30.11,North,5,0.0,0.0,98,0.00,,,0.00,Wunderground v.1.15,2013-05-03 06:14:00,
2013-05-03 02:19:00,59.0,58.4,30.11,North,5,0.0,0.0,98,0.00,,,0.00,Wunderground v.1.15,2013-05-03 06:19:00,
2013-05-03 02:29:00,59.0,58.4,30.11,North,5,0.0,0.0,98,0.00,,,0.00,Wunderground v.1.15,2013-05-03 06:29:00,
2013-05-03 02:39:00,59.0,58.4,30.10,North,5,0.0,0.0,98,0.00,,,0.00,Wunderground v.1.15,2013-05-03 06:39:00,
2013-05-03 02:44:00,58.9,58.3,30.10,North,360,0.0,0.0,98,0.00,,,0.00,Wunderground v.1.15,2013-05-03 06:44:00,
2013-05-03 02:49:00,58.8,58.2,30.10,North,5,0.0,0.0,98,0.00,,,0.00,Wunderground v.1.15,2013-05-03 06:49:00,
2013-05-03 02:59:00,58.6,58.3,30.09,North,5,0.0,0.0,99,0.00,,,0.00,Wunderground v.1.15,2013-05-03 06:59:00,
2013-05-03 03:09:00,58.4,58.1,30.09,North,5,0.0,0.0,99,0.00,,,0.00,Wunderground v.1.15,2013-05-03 07:09:00,
2013-05-03 03:14:00,58.4,58.1,30.09,NE,38,0.0,0.0,99,0.00,,,0.00,Wunderground v.1.15,2013-05-03 07:14:00,
2013-05-03 03:19:00,58.4,58.1,30.09,West,280,0.0,0.0,99,0.00,,,0.00,Wunderground v.1.15,2013-05-03 07:19:00,
2013-05-03 03:29:00,58.4,58.1,30.08,NW,309,0.0,0.0,99,0.00,,,0.00,Wunderground v.1.15,2013-05-03 07:29:00,
2013-05-03 03:39:00,58.3,58.0,30.08,North,9,0.0,0.0,99,0.00,,,0.00,Wunderground v.1.15,2013-05-03 07:39:00,
2013-05-03 03:49:00,58.2,57.9,30.08,North,9,0.0,1.0,99,0.00,,,0.00,Wunderground v.1.15,2013-05-03 07:49:00,
2013-05-03 03:59:00,58.1,57.8,30.07,NNE,23,0.0,0.0,99,0.00,,,0.00,Wunderground v.1.15,2013-05-03 07:59:00,
2013-05-03 04:09:00,58.2,57.9,30.07,NNE,32,0.0,0.0,99,0.00,,,0.00,Wunderground v.1.15,2013-05-03 08:09:00,
2013-05-03 04:19:00,58.2,57.9,30.06,North,5,0.0,0.0,99,0.00,,,0.00,Wunderground v.1.15,2013-05-03 08:19:00,
2013-05-03 04:24:00,58.2,57.9,30.06,North,360,0.0,0.0,99,0.00,,,0.00,Wunderground v.1.15,2013-05-03 08:24:00,
2013-05-03 04:29:00,58.2,57.9,30.06,North,360,0.0,0.0,99,0.00,,,0.00,Wunderground v.1.15,2013-05-03 08:29:00,
2013-05-03 04:39:00,58.2,57.9,30.07,North,351,0.0,0.0,99,0.00,,,0.00,Wunderground v.1.15,2013-05-03 08:39:00,
2013-05-03 04:49:00,58.2,58.2,30.06,NW,323,0.0,0.0,100,0.00,,,0.00,Wunderground v.1.15,2013-05-03 08:49:00,
2013-05-03 04:54:00,58.0,58.0,30.06,NW,323,0.0,0.0,100,0.00,,,0.00,Wunderground v.1.15,2013-05-03 08:54:00,
2013-05-03 04:59:00,57.9,57.9,30.06,NNW,333,0.0,0.0,100,0.00,,,0.00,Wunderground v.1.15,2013-05-03 08:59:00,
2013-05-03 05:09:00,57.7,57.7,30.06,NW,307,0.0,0.0,100,0.00,,,0.00,Wunderground v.1.15,2013-05-03 09:09:00,
2013-05-03 05:19:00,57.5,57.5,30.06,NW,310,0.0,0.0,100,0.00,,,0.00,Wunderground v.1.15,2013-05-03 09:19:00,
2013-05-03 05:24:00,57.4,57.4,30.06,NNE,26,0.0,0.0,100,0.00,,,0.00,Wunderground v.1.15,2013-05-03 09:24:00,
2013-05-03 05:29:00,57.3,57.3,30.06,NNE,25,0.0,0.0,100,0.00,,,0.00,Wunderground v.1.15,2013-05-03 09:29:00,
2013-05-03 05:39:00,57.3,57.3,30.06,NNE,25,0.0,0.0,100,0.00,,,0.00,Wunderground v.1.15,2013-05-03 09:39:00,
2013-05-03 05:49:00,57.3,57.3,30.07,NW,325,0.0,0.0,100,0.00,,,0.00,Wunderground v.1.15,2013-05-03 09:49:00,
2013-05-03 05:54:00,57.3,57.3,30.07,NW,325,0.0,0.0,100,0.00,,,0.00,Wunderground v.1.15,2013-05-03 09:54:00,
2013-05-03 05:59:00,57.2,57.2,30.06,NW,323,0.0,0.0,100,0.00,,,0.00,Wunderground v.1.15,2013-05-03 09:59:00,
2013-05-03 06:09:00,57.3,57.3,30.06,NW,325,0.0,0.0,100,0.00,,,0.00,Wunderground v.1.15,2013-05-03 10:09:00,
2013-05-03 06:19:00,57.3,57.3,30.06,NNE,19,0.0,0.0,100,0.00,,,0.00,Wunderground v.1.15,2013-05-03 10:19:00,
2013-05-03 06:24:00,57.4,57.4,30.06,NNE,19,0.0,0.0,100,0.00,,,0.00,Wunderground v.1.15,2013-05-03 10:24:00,
2013-05-03 06:29:00,57.4,57.4,30.06,NNE,19,0.0,0.0,100,0.00,,,0.00,Wunderground v.1.15,2013-05-03 10:29:00,
2013-05-03 06:39:00,57.3,57.3,30.06,NNE,19,0.0,0.0,100,0.00,,,0.00,Wunderground v.1.15,2013-05-03 10:39:00,
2013-05-03 06:49:00,57.3,57.3,30.07,North,11,0.0,0.0,100,0.00,,,0.00,Wunderground v.1.15,2013-05-03 10:49:00,
2013-05-03 06:59:00,57.3,57.3,30.07,SSW,211,0.0,0.0,100,0.00,,,0.00,Wunderground v.1.15,2013-05-03 10:59:00,
2013-05-03 07:04:00,57.3,57.3,30.07,SSW,213,0.0,0.0,100,0.00,,,0.00,Wunderground v.1.15,2013-05-03 11:04:00,
2013-05-03 07:09:00,57.3,57.3,30.07,NNW,345,0.0,0.0,100,0.00,,,0.00,Wunderground v.1.15,2013-05-03 11:09:00,
2013-05-03 07:19:00,57.3,57.3,30.08,NNW,334,0.0,0.0,100,0.00,,,0.00,Wunderground v.1.15,2013-05-03 11:19:00,
2013-05-03 07:29:00,57.4,57.4,30.08,NNW,334,0.0,0.0,100,0.00,,,0.00,Wunderground v.1.15,2013-05-03 11:29:00,
2013-05-03 07:34:00,57.4,57.4,30.08,NNW,327,0.0,0.0,100,0.00,,,0.00,Wunderground v.1.15,2013-05-03 11:34:00,
2013-05-03 07:44:00,57.4,57.4,30.08,NW,317,0.0,0.0,100,0.00,,,0.00,Wunderground v.1.15,2013-05-03 11:44:00,
2013-05-03 07:49:00,57.4,57.1,30.09,NW,317,0.0,0.0,99,0.00,,,0.00,Wunderground v.1.15,2013-05-03 11:49:00,
2013-05-03 07:59:00,57.4,57.1,30.09,NNE,28,0.0,0.0,99,0.00,,,0.00,Wunderground v.1.15,2013-05-03 11:59:00,
2013-05-03 08:04:00,57.4,57.1,30.09,NNE,28,0.0,0.0,99,0.00,,,0.00,Wunderground v.1.15,2013-05-03 12:04:00,
2013-05-03 08:09:00,57.4,57.4,30.09,NNW,341,0.0,0.0,100,0.00,,,0.00,Wunderground v.1.15,2013-05-03 12:09:00,
2013-05-03 08:19:00,57.3,57.0,30.09,NNE,13,0.0,0.0,99,0.00,,,0.00,Wunderground v.1.15,2013-05-03 12:19:00,
2013-05-03 08:29:00,57.2,56.9,30.09,NE,38,0.0,2.0,99,0.00,,,0.00,Wunderground v.1.15,2013-05-03 12:29:00,
2013-05-03 08:34:00,57.2,56.9,30.09,ESE,109,0.0,2.0,99,0.00,,,0.00,Wunderground v.1.15,2013-05-03 12:34:00,
2013-05-03 08:39:00,57.3,56.7,30.09,NNW,329,0.0,0.0,98,0.00,,,0.00,Wunderground v.1.15,2013-05-03 12:39:00,
2013-05-03 08:49:00,57.6,56.8,30.09,North,360,0.0,0.0,97,0.00,,,0.00,Wunderground v.1.15,2013-05-03 12:49:00,
2013-05-03 08:59:00,58.0,56.9,30.09,NNW,348,0.0,0.0,96,0.00,,,0.00,Wunderground v.1.15,2013-05-03 12:59:00,
2013-05-03 09:04:00,58.2,57.1,30.09,SE,130,0.0,1.0,96,0.00,,,0.00,Wunderground v.1.15,2013-05-03 13:04:00,
2013-05-03 09:09:00,58.4,57.0,30.09,North,351,0.0,0.0,95,0.00,,,0.00,Wunderground v.1.15,2013-05-03 13:09:00,
2013-05-03 09:19:00,58.5,56.8,30.08,North,360,0.0,0.0,94,0.00,,,0.00,Wunderground v.1.15,2013-05-03 13:19:00,
2013-05-03 09:29:00,58.5,56.5,30.08,North,360,0.0,1.0,93,0.00,,,0.00,Wunderground v.1.15,2013-05-03 13:29:00,
2013-05-03 09:39:00,58.5,56.5,30.08,North,360,0.0,0.0,93,0.00,,,0.00,Wunderground v.1.15,2013-05-03 13:39:00,
2013-05-03 09:49:00,58.6,56.6,30.08,North,350,0.0,0.0,93,0.00,,,0.00,Wunderground v.1.15,2013-05-03 13:49:00,
2013-05-03 09:59:00,59.0,56.4,30.08,SW,221,0.0,0.0,91,0.00,,,0.00,Wunderground v.1.15,2013-05-03 13:59:00,
2013-05-03 10:09:00,59.0,56.1,30.09,SSE,149,0.0,0.0,90,0.00,,,0.00,Wunderground v.1.15,2013-05-03 14:09:00,
2013-05-03 10:14:00,59.1,56.2,30.08,SSE,157,0.0,0.0,90,0.00,,,0.00,Wunderground v.1.15,2013-05-03 14:14:00,
2013-05-03 10:24:00,59.7,56.5,30.08,NNE,20,0.0,0.0,89,0.00,,,0.00,Wunderground v.1.15,2013-05-03 14:24:00,
2013-05-03 10:29:00,59.9,56.0,30.08,NNW,335,0.0,0.0,87,0.00,,,0.00,Wunderground v.1.15,2013-05-03 14:29:00,
2013-05-03 10:39:00,60.3,56.4,30.08,NNW,329,0.0,2.0,87,0.00,,,0.00,Wunderground v.1.15,2013-05-03 14:39:00,
2013-05-03 10:44:00,60.4,56.2,30.08,South,172,0.0,2.0,86,0.00,,,0.00,Wunderground v.1.15,2013-05-03 14:44:00,
2013-05-03 10:49:00,60.4,56.5,30.08,NNE,27,0.0,0.0,87,0.00,,,0.00,Wunderground v.1.15,2013-05-03 14:49:00,
2013-05-03 10:59:00,60.5,56.0,30.08,NW,310,0.0,0.0,85,0.00,,,0.00,Wunderground v.1.15,2013-05-03 14:59:00,
2013-05-03 11:09:00,60.8,56.6,30.08,NE,43,0.0,0.0,86,0.00,,,0.00,Wunderground v.1.15,2013-05-03 15:09:00,
2013-05-03 11:19:00,61.0,56.5,30.08,NW,310,0.0,1.0,85,0.00,,,0.00,Wunderground v.1.15,2013-05-03 15:19:00,
2013-05-03 11:24:00,60.9,56.4,30.08,NE,39,0.0,1.0,85,0.00,,,0.00,Wunderground v.1.15,2013-05-03 15:24:00,
2013-05-03 11:34:00,60.3,56.1,30.08,North,360,0.0,0.0,86,0.00,,,0.00,Wunderground v.1.15,2013-05-03 15:34:00,
2013-05-03 11:44:00,60.2,56.3,30.08,North,360,0.0,1.0,87,0.00,,,0.00,Wunderground v.1.15,2013-05-03 15:44:00,
2013-05-03 11:49:00,60.4,56.5,30.08,ENE,69,0.0,0.0,87,0.00,,,0.00,Wunderground v.1.15,2013-05-03 15:49:00,
2013-05-03 11:59:00,60.6,56.7,30.08,North,5,0.0,0.0,87,0.00,,,0.00,Wunderground v.1.15,2013-05-03 15:59:00,
2013-05-03 12:04:00,60.7,56.5,30.08,North,360,0.0,0.0,86,0.00,,,0.00,Wunderground v.1.15,2013-05-03 16:04:00,
2013-05-03 12:09:00,60.7,56.8,30.08,NNW,347,0.0,0.0,87,0.00,,,0.00,Wunderground v.1.15,2013-05-03 16:09:00,
2013-05-03 12:19:00,60.8,56.9,30.08,NW,309,0.0,0.0,87,0.00,,,0.00,Wunderground v.1.15,2013-05-03 16:19:00,
2013-05-03 12:29:00,61.3,57.7,30.08,NNE,28,0.0,0.0,88,0.00,,,0.00,Wunderground v.1.15,2013-05-03 16:29:00,
2013-05-03 12:34:00,61.0,57.1,30.07,SSE,156,0.0,0.0,87,0.00,,,0.00,Wunderground v.1.15,2013-05-03 16:34:00,
2013-05-03 12:39:00,60.7,57.4,30.07,SSE,156,0.0,0.0,89,0.00,,,0.00,Wunderground v.1.15,2013-05-03 16:39:00,
2013-05-03 12:49:00,60.0,57.7,30.07,NNW,344,0.0,0.0,92,0.00,,,0.00,Wunderground v.1.15,2013-05-03 16:49:00,
2013-05-03 12:59:00,59.4,57.7,30.07,NNW,345,0.0,1.0,94,0.00,,,0.00,Wunderground v.1.15,2013-05-03 16:59:00,
2013-05-03 13:09:00,58.9,58.1,30.08,NNW,344,0.0,0.0,97,0.00,,,0.00,Wunderground v.1.15,2013-05-03 17:09:00,
2013-05-03 13:14:00,58.6,58.0,30.08,NNW,344,0.0,0.0,98,0.00,,,0.00,Wunderground v.1.15,2013-05-03 17:14:00,
2013-05-03 13:19:00,58.4,58.1,30.07,NNW,344,0.0,0.0,99,0.00,,,0.00,Wunderground v.1.15,2013-05-03 17:19:00,
2013-05-03 13:24:00,58.1,57.8,30.07,NNW,337,0.0,0.0,99,0.00,,,0.00,Wunderground v.1.15,2013-05-03 17:24:00,
2013-05-03 13:29:00,58.1,58.1,30.07,NNW,336,0.0,0.0,100,0.00,,,0.00,Wunderground v.1.15,2013-05-03 17:29:00,
2013-05-03 13:39:00,57.8,57.8,30.07,NNW,336,0.0,0.0,100,0.00,,,0.00,Wunderground v.1.15,2013-05-03 17:39:00,
2013-05-03 13:49:00,57.9,57.9,30.06,NNW,336,0.0,0.0,100,0.00,,,0.00,Wunderground v.1.15,2013-05-03 17:49:00,
2013-05-03 13:54:00,57.8,57.8,30.06,NNW,336,0.0,0.0,100,0.00,,,0.00,Wunderground v.1.15,2013-05-03 17:54:00,
2013-05-03 13:59:00,57.8,57.8,30.06,NNW,336,0.0,0.0,100,0.00,,,0.00,Wunderground v.1.15,2013-05-03 17:59:00,
2013-05-03 14:09:00,57.8,57.8,30.06,NNW,336,0.0,0.0,100,0.00,,,0.00,Wunderground v.1.15,2013-05-03 18:09:00,
2013-05-03 14:19:00,57.7,57.7,30.06,NNW,335,0.0,0.0,100,0.00,,,0.00,Wunderground v.1.15,2013-05-03 18:19:00,
2013-05-03 14:24:00,57.8,57.8,30.06,NW,324,0.0,0.0,100,0.00,,,0.00,Wunderground v.1.15,2013-05-03 18:24:00,
2013-05-03 14:29:00,57.8,57.8,30.06,NNE,13,0.0,0.0,100,0.00,,,0.00,Wunderground v.1.15,2013-05-03 18:29:00,
2013-05-03 14:39:00,57.8,57.8,30.06,North,9,0.0,0.0,100,0.00,,,0.00,Wunderground v.1.15,2013-05-03 18:39:00,
2013-05-03 14:49:00,57.7,57.7,30.05,North,360,0.0,0.0,100,0.00,,,0.00,Wunderground v.1.15,2013-05-03 18:49:00,
2013-05-03 14:59:00,57.7,57.7,30.05,North,360,0.0,0.0,100,0.00,,,0.00,Wunderground v.1.15,2013-05-03 18:59:00,
2013-05-03 15:04:00,57.8,57.8,30.05,North,355,0.0,0.0,100,0.00,,,0.00,Wunderground v.1.15,2013-05-03 19:04:00,
2013-05-03 15:09:00,57.8,57.8,30.05,North,355,0.0,0.0,100,0.00,,,0.00,Wunderground v.1.15,2013-05-03 19:09:00,
2013-05-03 15:19:00,57.9,57.9,30.05,North,355,0.0,2.0,100,0.00,,,0.00,Wunderground v.1.15,2013-05-03 19:19:00,
2013-05-03 15:29:00,58.1,58.1,30.05,NE,36,0.0,0.0,100,0.00,,,0.00,Wunderground v.1.15,2013-05-03 19:29:00,
2013-05-03 15:39:00,58.4,58.4,30.04,NE,36,0.0,0.0,100,0.00,,,0.00,Wunderground v.1.15,2013-05-03 19:39:00,
2013-05-03 15:44:00,58.5,58.5,30.04,NE,34,0.0,0.0,100,0.00,,,0.00,Wunderground v.1.15,2013-05-03 19:44:00,
2013-05-03 15:49:00,58.6,58.6,30.03,NE,34,0.0,0.0,100,0.00,,,0.00,Wunderground v.1.15,2013-05-03 19:49:00,
2013-05-03 15:59:00,59.0,59.0,30.03,NNE,22,0.0,0.0,100,0.00,,,0.00,Wunderground v.1.15,2013-05-03 19:59:00,
2013-05-03 16:09:00,59.0,59.0,30.03,NNE,26,0.0,0.0,100,0.00,,,0.00,Wunderground v.1.15,2013-05-03 20:09:00,
2013-05-03 16:14:00,59.0,59.0,30.03,SE,138,0.0,0.0,100,0.00,,,0.00,Wunderground v.1.15,2013-05-03 20:14:00,
2013-05-03 16:24:00,59.0,59.0,30.03,SSE,148,0.0,0.0,100,0.00,,,0.00,Wunderground v.1.15,2013-05-03 20:24:00,
2013-05-03 16:29:00,59.0,59.0,30.03,NNW,331,0.0,0.0,100,0.00,,,0.00,Wunderground v.1.15,2013-05-03 20:29:00,
2013-05-03 16:39:00,59.0,59.0,30.03,WNW,300,0.0,0.0,100,0.00,,,0.00,Wunderground v.1.15,2013-05-03 20:39:00,
2013-05-03 16:44:00,59.0,59.0,30.02,WNW,300,0.0,0.0,100,0.00,,,0.00,Wunderground v.1.15,2013-05-03 20:44:00,
2013-05-03 16:49:00,59.0,59.0,30.02,NNE,24,0.0,0.0,100,0.00,,,0.00,Wunderground v.1.15,2013-05-03 20:49:00,
2013-05-03 16:59:00,59.2,58.9,30.02,WNW,298,0.0,0.0,99,0.00,,,0.00,Wunderground v.1.15,2013-05-03 20:59:00,
2013-05-03 17:09:00,59.3,58.7,30.02,North,355,0.0,0.0,98,0.00,,,0.00,Wunderground v.1.15,2013-05-03 21:09:00,
2013-05-03 17:14:00,59.3,58.7,30.02,North,11,0.0,0.0,98,0.00,,,0.00,Wunderground v.1.15,2013-05-03 21:14:00,
2013-05-03 17:19:00,59.2,58.3,30.02,NW,311,0.0,0.0,97,0.00,,,0.00,Wunderground v.1.15,2013-05-03 21:19:00,
2013-05-03 17:29:00,59.0,58.4,30.02,ESE,121,0.0,0.0,98,0.00,,,0.00,Wunderground v.1.15,2013-05-03 21:29:00,
2013-05-03 17:39:00,59.0,58.4,30.02,NE,37,0.0,0.0,98,0.00,,,0.00,Wunderground v.1.15,2013-05-03 21:39:00,
2013-05-03 17:44:00,59.0,58.4,30.02,NNW,342,0.0,0.0,98,0.00,,,0.00,Wunderground v.1.15,2013-05-03 21:44:00,
2013-05-03 17:49:00,59.0,58.4,30.02,NNW,342,0.0,0.0,98,0.00,,,0.00,Wunderground v.1.15,2013-05-03 21:49:00,
2013-05-03 17:59:00,59.0,58.4,30.02,North,355,0.0,0.0,98,0.00,,,0.00,Wunderground v.1.15,2013-05-03 21:59:00,
2013-05-03 18:09:00,58.9,58.3,30.01,North,355,0.0,0.0,98,0.00,,,0.00,Wunderground v.1.15,2013-05-03 22:09:00,
2013-05-03 18:19:00,58.7,58.1,30.00,ENE,78,0.0,0.0,98,0.00,,,0.00,Wunderground v.1.15,2013-05-03 22:19:00,
2013-05-03 18:29:00,58.6,58.3,30.00,West,265,0.0,0.0,99,0.00,,,0.00,Wunderground v.1.15,2013-05-03 22:29:00,
2013-05-03 18:39:00,58.5,58.5,30.00,NW,317,0.0,0.0,100,0.00,,,0.00,Wunderground v.1.15,2013-05-03 22:39:00,
2013-05-03 18:49:00,58.5,58.2,30.00,East,89,0.0,0.0,99,0.00,,,0.00,Wunderground v.1.15,2013-05-03 22:49:00,
2013-05-03 18:54:00,58.6,58.6,30.00,East,88,0.0,0.0,100,0.00,,,0.00,Wunderground v.1.15,2013-05-03 22:54:00,
2013-05-03 19:49:00,58.1,58.1,29.99,NNE,30,0.0,0.0,100,0.00,,,0.00,Wunderground v.1.15,2013-05-03 23:49:00,
2013-05-03 19:54:00,58.1,58.1,29.99,NNW,337,0.0,0.0,100,0.00,,,0.00,Wunderground v.1.15,2013-05-03 23:54:00,
2013-05-03 19:59:00,58.0,58.0,30.00,NW,313,0.0,0.0,100,0.00,,,0.00,Wunderground v.1.15,2013-05-03 23:59:00,
2013-05-03 20:09:00,57.9,57.9,30.00,NW,313,0.0,0.0,100,0.00,,,0.00,Wunderground v.1.15,2013-05-04 00:09:00,
2013-05-03 20:19:00,57.7,57.7,29.99,NNW,333,0.0,0.0,100,0.00,,,0.00,Wunderground v.1.15,2013-05-04 00:19:00,
2013-05-03 20:29:00,57.7,57.7,29.99,NNW,342,0.0,1.0,100,0.00,,,0.00,Wunderground v.1.15,2013-05-04 00:29:00,
2013-05-03 20:34:00,57.7,57.7,29.99,NNW,342,0.0,1.0,100,0.00,,,0.00,Wunderground v.1.15,2013-05-04 00:34:00,
2013-05-03 20:39:00,57.7,57.7,29.99,NNW,342,0.0,0.0,100,0.00,,,0.00,Wunderground v.1.15,2013-05-04 00:39:00,
2013-05-03 20:49:00,57.7,57.7,29.99,NNW,347,0.0,0.0,100,0.00,,,0.00,Wunderground v.1.15,2013-05-04 00:49:00,
2013-05-03 20:59:00,57.8,57.8,29.99,NE,51,0.0,0.0,100,0.00,,,0.00,Wunderground v.1.15,2013-05-04 00:59:00,
2013-05-03 21:04:00,57.9,57.9,29.99,South,190,0.0,0.0,100,0.00,,,0.00,Wunderground v.1.15,2013-05-04 01:04:00,
2013-05-03 21:09:00,57.9,57.9,29.99,SW,229,0.0,0.0,100,0.00,,,0.00,Wunderground v.1.15,2013-05-04 01:09:00,
2013-05-03 21:19:00,58.1,58.1,29.99,NNE,19,0.0,0.0,100,0.00,,,0.00,Wunderground v.1.15,2013-05-04 01:19:00,
2013-05-03 21:29:00,58.2,58.2,29.99,NNW,342,0.0,0.0,100,0.00,,,0.00,Wunderground v.1.15,2013-05-04 01:29:00,
2013-05-03 21:34:00,58.4,58.4,29.99,NNW,343,0.0,0.0,100,0.00,,,0.00,Wunderground v.1.15,2013-05-04 01:34:00,
2013-05-03 21:39:00,58.4,58.4,29.99,North,5,0.0,0.0,100,0.00,,,0.00,Wunderground v.1.15,2013-05-04 01:39:00,
2013-05-03 21:49:00,58.6,58.6,30.00,WSW,240,0.0,1.0,100,0.00,,,0.00,Wunderground v.1.15,2013-05-04 01:49:00,
2013-05-03 21:59:00,58.6,58.6,30.00,WNW,286,0.0,0.0,100,0.00,,,0.00,Wunderground v.1.15,2013-05-04 01:59:00,
2013-05-03 22:04:00,58.7,58.7,30.00,WNW,284,0.0,0.0,100,0.00,,,0.00,Wunderground v.1.15,2013-05-04 02:04:00,
2013-05-03 22:09:00,58.7,58.7,30.00,SE,136,0.0,0.0,100,0.00,,,0.00,Wunderground v.1.15,2013-05-04 02:09:00,
2013-05-03 22:19:00,58.8,58.5,30.00,ENE,72,0.0,0.0,99,0.00,,,0.00,Wunderground v.1.15,2013-05-04 02:19:00,
2013-05-03 22:29:00,58.6,58.0,30.00,SSE,157,1.0,1.0,98,0.00,,,0.00,Wunderground v.1.15,2013-05-04 02:29:00,
2013-05-03 22:39:00,58.6,57.8,30.00,SSE,157,1.0,1.0,97,0.00,,,0.01,Wunderground v.1.15,2013-05-04 02:39:00,
2013-05-03 22:44:00,58.6,57.8,30.00,ESE,111,1.0,2.0,97,0.00,,,0.01,Wunderground v.1.15,2013-05-04 02:44:00,
2013-05-03 22:49:00,58.5,57.7,30.00,ENE,60,0.0,0.0,97,0.00,,,0.01,Wunderground v.1.15,2013-05-04 02:49:00,
2013-05-03 22:59:00,58.4,57.6,30.00,ESE,110,0.0,0.0,97,0.00,,,0.01,Wunderground v.1.15,2013-05-04 02:59:00,
2013-05-03 23:09:00,58.4,57.6,30.00,NNE,17,0.0,0.0,97,0.00,,,0.01,Wunderground v.1.15,2013-05-04 03:09:00,
2013-05-03 23:14:00,58.2,57.4,30.00,SSE,154,0.0,0.0,97,0.00,,,0.01,Wunderground v.1.15,2013-05-04 03:14:00,
2013-05-03 23:19:00,58.2,57.4,30.00,SSE,151,0.0,0.0,97,0.00,,,0.01,Wunderground v.1.15,2013-05-04 03:19:00,
2013-05-03 23:29:00,58.0,57.2,30.00,SE,127,0.0,0.0,97,0.00,,,0.01,Wunderground v.1.15,2013-05-04 03:29:00,
2013-05-03 23:34:00,58.0,57.2,29.99,SE,126,0.0,2.0,97,0.00,,,0.01,Wunderground v.1.15,2013-05-04 03:34:00,
2013-05-03 23:39:00,57.9,56.8,29.99,East,98,0.0,0.0,96,0.00,,,0.01,Wunderground v.1.15,2013-05-04 03:39:00,
2013-05-03 23:49:00,57.9,57.1,29.98,North,349,0.0,0.0,97,0.00,,,0.01,Wunderground v.1.15,2013-05-04 03:49:00,
2013-05-03 23:59:00,57.8,57.0,29.98,SSE,161,0.0,0.0,97,0.00,,,0.01,Wunderground v.1.15,2013-05-04 03:59:00,